weather.gov     
National Weather Service

Regional Weather Roundup
NWS Homepage
This page is being discontinued on March 12, 2014.
The same data is available at this site. Please update your bookmarks.
Thank you, and we apologize for the inconvenience.
Please send an email to SR-SRH.Webmaster@noaa.gov with any concerns.


Current Version
Previous Version:    01  02  03  04  05  06  07  08  09  10  11  12  13  14  15  16  17  18  19  20  21  22  23  24  25  26  27  28  
[Printable]
379
ASUS45 KCYS 272010
RWRWY

WYOMING REGIONAL WEATHER ROUNDUP
NATIONAL WEATHER SERVICE CHEYENNE WY
100 PM MST TUE JAN 27 2015

NOTE:  "FAIR" INDICATES FEW OR NO CLOUDS BELOW 12,000 FEET
WITH NO SIGNIFICANT WEATHER AND/OR OBSTRUCTIONS TO VISIBILITY.

WYZ001-272100-
YELLOWSTONE NATIONAL PARK

CITY           SKY/WX    TMP DP  RH WIND       PRES   REMARKS
LK YELLOWSTONE   N/A     28  17  63 CALM      30.19F
W YELLOWSTONE  NOT AVBL

$$
WYZ002>013-054>058-071-098>099-272100-
NORTHERN WYOMING

CITY           SKY/WX    TMP DP  RH WIND       PRES   REMARKS
JACKSON        SUNNY     19  19 100 CALM      30.21F
CODY           FAIR      54  28  37 N5        29.98F
GREYBULL       FAIR      36  26  67 CALM      30.00F
WORLAND        FAIR      32  25  75 CALM      29.99F
SHERIDAN       FAIR      54  34  46 N6        29.90F
BUFFALO          N/A     58  34  40 S8        29.94F
GILLETTE       FAIR      62  31  31 SW12G20   29.93F
HULETT           N/A    N/A N/A N/A MISG        N/A
NEWCASTLE      FAIR      61  27  27 SW3       30.00F

$$
WYZ014>020-022>026-101>103-272100-
CENTRAL WYOMING

CITY           SKY/WX    TMP DP  RH WIND       PRES   REMARKS
BIG PINEY      FAIR      34  22  61 CALM      30.21F
PINEDALE       FAIR      32  23  69 CALM      30.21F
DUBOIS         FAIR      50  19  29 W22G30    30.10F
LANDER         FAIR      36  28  73 E3        30.07F
RIVERTON       FAIR      37  29  72 SW5       30.08F WCI  33
CASPER         FAIR      58  25  28 SW25G36   30.03F
DOUGLAS        FAIR      68  21  16 W21G32    30.02F

$$
WYZ021-027>030-104>119-272100-
SOUTHERN WYOMING

CITY           SKY/WX    TMP DP  RH WIND       PRES   REMARKS
EVANSTON       CLOUDY    43  26  51 SW15      30.20F
KEMMERER       CLOUDY    37  28  70 CALM      30.21F
FORT BRIDGER   CLOUDY    40  30  66 CALM      30.25S
ROCK SPRINGS   FAIR      48  26  42 SW3       30.19F
DIXON          FAIR      49  27  41 W9        30.26F
RAWLINS        FAIR      55  24  30 SW25      30.19F
SARATOGA       FAIR      59  21  23 SW17      30.21F
LARAMIE        FAIR      55  20  25 W14       30.17F
CHEYENNE       FAIR      64  19  17 W15       30.11F
TORRINGTON     FAIR      69  26  20 S5        29.99F
PINE BLUFFS    FAIR      72  19  14 W8        30.07F

$$




U.S. Dept. of Commerce
NOAA National Weather Service
1325 East West Highway
Silver Spring, MD 20910
E-mail: w-nws.webmaster@noaa.gov
Page last modified: May 16, 2007
NATIONAL WEATHER SERVICE: for Safety, for Work, for Fun - FOR LIFE